N140JP SKBO-KORL

Flight info

Callsign N140JP
Flight time N/A
Altitude 40000
Route OSUSU4R GIKPU UQ120 PADUD/N0486F430 UQ120 DIBAM UW10 CTG UM779 ZEUSS Y217 OCTAL MUNGI1
Aircraft C750/M-SBDE3FGHRWXY/S

Departure

Time N/A
Airport El Dorado International Airport (SKBO)

Arrival

Time 2026-05-06 03:13
Airport Orlando Executive Airport (KORL)
Time Latitude Longitude Altitude Speed Heading
2026-05-06 02:32 25.60799 -79.84253 42050 ft 407 kts 326°
2026-05-06 02:32 25.63187 -79.85833 41517 ft 393 kts 326°
2026-05-06 02:32 25.65497 -79.87363 41010 ft 382 kts 326°
2026-05-06 02:32 25.67795 -79.88887 40509 ft 380 kts 326°
2026-05-06 02:33 25.70051 -79.90383 40018 ft 386 kts 326°
2026-05-06 02:33 25.71615 -79.91421 39676 ft 392 kts 326°
2026-05-06 02:34 25.79558 -79.96683 37882 ft 401 kts 327°
2026-05-06 02:34 25.81960 -79.98279 37351 ft 404 kts 327°
2026-05-06 02:34 25.84382 -79.99888 36816 ft 408 kts 327°
2026-05-06 02:34 25.86828 -80.01512 36278 ft 411 kts 327°
2026-05-06 02:35 25.89294 -80.03150 35729 ft 414 kts 327°
2026-05-06 02:35 25.91785 -80.04807 35206 ft 417 kts 327°
2026-05-06 02:35 25.94275 -80.06464 34628 ft 419 kts 327°
2026-05-06 02:35 25.96784 -80.08134 34073 ft 421 kts 327°
2026-05-06 02:36 25.99307 -80.09815 33484 ft 424 kts 327°
2026-05-06 02:36 26.01843 -80.11504 32922 ft 425 kts 327°
2026-05-06 02:36 26.04388 -80.13200 32356 ft 425 kts 327°
2026-05-06 02:36 26.06927 -80.14893 31797 ft 425 kts 326°
2026-05-06 02:37 26.09431 -80.16565 31243 ft 426 kts 326°
2026-05-06 02:37 26.11968 -80.18260 30679 ft 424 kts 326°
2026-05-06 02:37 26.14493 -80.19943 30133 ft 421 kts 326°
2026-05-06 02:37 26.17050 -80.21359 30037 ft 397 kts 332°
2026-05-06 02:38 26.19505 -80.22617 30031 ft 384 kts 331°
2026-05-06 02:38 26.24416 -80.25201 30060 ft 397 kts 331°
2026-05-06 02:39 26.29443 -80.27802 30057 ft 398 kts 331°
2026-05-06 02:39 26.34467 -80.30428 30063 ft 399 kts 331°
2026-05-06 02:40 26.39464 -80.33033 30058 ft 399 kts 331°
2026-05-06 02:40 26.44484 -80.35654 30048 ft 398 kts 331°
2026-05-06 02:41 26.49505 -80.38280 30051 ft 399 kts 331°
2026-05-06 02:41 26.54537 -80.40913 30066 ft 399 kts 331°
2026-05-06 02:42 26.59594 -80.43563 29914 ft 411 kts 331°
2026-05-06 02:42 26.62237 -80.44935 29564 ft 423 kts 333°
2026-05-06 02:42 26.64960 -80.46081 29200 ft 423 kts 336°
2026-05-06 02:42 26.67728 -80.47189 28827 ft 421 kts 336°
2026-05-06 02:43 26.70470 -80.48314 28460 ft 418 kts 335°
2026-05-06 02:43 26.73190 -80.49456 28087 ft 416 kts 335°
2026-05-06 02:43 26.75892 -80.50580 27722 ft 414 kts 335°
2026-05-06 02:43 26.78610 -80.51695 27355 ft 412 kts 335°
2026-05-06 02:44 26.81292 -80.52800 26997 ft 409 kts 335°
2026-05-06 02:44 26.83961 -80.53908 26631 ft 407 kts 335°
2026-05-06 02:44 26.86601 -80.55005 26299 ft 403 kts 335°
2026-05-06 02:44 26.89188 -80.56074 25928 ft 400 kts 335°
2026-05-06 02:45 26.91793 -80.57153 25580 ft 398 kts 335°
2026-05-06 02:45 26.94390 -80.58232 25230 ft 396 kts 335°
2026-05-06 02:45 26.96972 -80.59304 24882 ft 395 kts 335°
2026-05-06 02:45 26.99544 -80.60371 24540 ft 393 kts 335°
2026-05-06 02:46 27.02112 -80.61437 24188 ft 391 kts 335°
2026-05-06 02:46 27.04659 -80.62495 23848 ft 389 kts 335°
2026-05-06 02:46 27.07196 -80.63551 23482 ft 388 kts 334°
2026-05-06 02:46 27.09731 -80.64606 23127 ft 386 kts 334°
2026-05-06 02:47 27.12234 -80.65648 23061 ft 383 kts 334°
2026-05-06 02:47 27.14741 -80.66701 23065 ft 385 kts 334°
2026-05-06 02:47 27.17257 -80.67758 23078 ft 386 kts 334°
2026-05-06 02:47 27.19771 -80.68810 23072 ft 385 kts 334°
2026-05-06 02:48 27.22282 -80.69863 22985 ft 388 kts 334°
2026-05-06 02:48 27.24811 -80.70925 22677 ft 387 kts 334°
2026-05-06 02:48 27.27328 -80.71980 22339 ft 385 kts 334°
2026-05-06 02:48 27.29797 -80.73017 22006 ft 383 kts 334°
2026-05-06 02:49 27.32290 -80.74065 21670 ft 381 kts 335°
2026-05-06 02:49 27.34759 -80.75103 21336 ft 372 kts 335°
2026-05-06 02:49 27.37122 -80.76089 21061 ft 352 kts 334°
2026-05-06 02:49 27.39359 -80.77043 21057 ft 340 kts 334°
2026-05-06 02:50 27.41596 -80.78036 20986 ft 350 kts 333°
2026-05-06 02:50 27.43866 -80.79027 20982 ft 350 kts 334°
2026-05-06 02:50 27.46155 -80.80007 20986 ft 352 kts 334°
2026-05-06 02:50 27.48414 -80.80980 20986 ft 352 kts 334°
2026-05-06 02:51 27.50707 -80.81977 20986 ft 353 kts 334°
2026-05-06 02:51 27.52996 -80.82972 20988 ft 353 kts 334°
2026-05-06 02:51 27.55287 -80.83965 20991 ft 353 kts 334°
2026-05-06 02:51 27.57547 -80.85025 20878 ft 354 kts 330°
2026-05-06 02:52 27.59801 -80.86219 20328 ft 355 kts 330°
2026-05-06 02:52 27.62018 -80.87386 19904 ft 349 kts 330°
2026-05-06 02:52 27.64219 -80.88533 19494 ft 347 kts 331°
2026-05-06 02:52 27.66388 -80.89666 19090 ft 347 kts 331°
2026-05-06 02:53 27.68576 -80.90813 18680 ft 345 kts 331°
2026-05-06 02:53 27.70704 -80.91926 18262 ft 328 kts 331°
2026-05-06 02:53 27.72728 -80.92982 17857 ft 310 kts 330°
2026-05-06 02:53 27.74635 -80.93985 17498 ft 298 kts 330°
2026-05-06 02:54 27.76497 -80.94967 17156 ft 294 kts 330°
2026-05-06 02:54 27.78353 -80.95944 16810 ft 295 kts 330°
2026-05-06 02:54 27.80233 -80.96932 16463 ft 308 kts 330°
2026-05-06 02:54 27.82237 -80.97993 16098 ft 329 kts 331°
2026-05-06 02:55 27.84308 -80.99074 15708 ft 327 kts 331°
2026-05-06 02:55 27.86369 -81.00150 15320 ft 325 kts 331°
2026-05-06 02:55 27.88413 -81.01228 14935 ft 323 kts 331°
2026-05-06 02:55 27.90449 -81.02303 14547 ft 323 kts 331°
2026-05-06 02:56 27.92485 -81.03375 14172 ft 323 kts 332°
2026-05-06 02:56 27.94556 -81.04357 13775 ft 323 kts 336°
2026-05-06 02:56 27.96672 -81.05230 13380 ft 322 kts 336°
2026-05-06 02:56 27.98761 -81.06123 13006 ft 320 kts 336°
2026-05-06 02:57 28.00842 -81.07014 12630 ft 320 kts 336°
2026-05-06 02:57 28.02923 -81.07894 12257 ft 319 kts 336°
2026-05-06 02:57 28.04997 -81.08768 11986 ft 314 kts 336°
2026-05-06 02:57 28.07008 -81.09700 11956 ft 312 kts 329°
2026-05-06 02:58 28.08563 -81.11270 11972 ft 288 kts 308°
2026-05-06 02:58 28.09662 -81.13065 11977 ft 280 kts 298°
2026-05-06 02:58 28.10539 -81.15064 11995 ft 285 kts 294°
2026-05-06 02:58 28.11366 -81.17113 11997 ft 285 kts 293°
2026-05-06 02:59 28.12182 -81.19160 11996 ft 286 kts 293°
2026-05-06 02:59 28.13000 -81.21219 12009 ft 285 kts 293°
2026-05-06 02:59 28.13816 -81.23269 12007 ft 286 kts 293°
2026-05-06 02:59 28.14631 -81.25317 12008 ft 285 kts 293°
2026-05-06 03:00 28.15448 -81.27371 12010 ft 286 kts 293°
2026-05-06 03:00 28.16265 -81.29424 12012 ft 285 kts 293°
2026-05-06 03:00 28.17080 -81.31492 11727 ft 292 kts 293°
2026-05-06 03:00 28.17907 -81.33606 11244 ft 294 kts 293°
2026-05-06 03:01 28.18730 -81.35716 10763 ft 291 kts 293°
2026-05-06 03:01 28.19546 -81.37803 10305 ft 288 kts 293°
2026-05-06 03:01 28.20190 -81.39916 9694 ft 281 kts 281°
2026-05-06 03:01 28.20422 -81.42090 8857 ft 283 kts 274°
2026-05-06 03:02 28.20551 -81.44315 8236 ft 282 kts 273°
2026-05-06 03:02 28.20669 -81.46526 7630 ft 278 kts 273°
2026-05-06 03:02 28.20785 -81.48707 7035 ft 275 kts 273°
2026-05-06 03:02 28.20908 -81.50853 6441 ft 270 kts 273°
2026-05-06 03:03 28.21112 -81.52958 5763 ft 269 kts 283°
2026-05-06 03:03 28.22093 -81.54757 4949 ft 274 kts 314°
2026-05-06 03:03 28.23559 -81.56086 4453 ft 266 kts 323°
2026-05-06 03:03 28.25030 -81.57320 3967 ft 259 kts 324°
2026-05-06 03:04 28.26479 -81.58437 3427 ft 253 kts 337°
2026-05-06 03:04 28.28167 -81.58944 2998 ft 245 kts 353°
2026-05-06 03:04 28.29773 -81.59246 3009 ft 224 kts 353°
2026-05-06 03:04 28.31280 -81.59532 2988 ft 217 kts 354°
2026-05-06 03:05 28.32754 -81.59827 3010 ft 215 kts 353°
2026-05-06 03:05 28.34234 -81.60127 2986 ft 217 kts 353°
2026-05-06 03:05 28.35738 -81.60422 3008 ft 221 kts 353°
2026-05-06 03:05 28.37249 -81.60721 3008 ft 220 kts 353°
2026-05-06 03:06 28.38769 -81.61027 2998 ft 222 kts 353°
2026-05-06 03:06 28.40283 -81.61325 2994 ft 219 kts 354°
2026-05-06 03:06 28.41708 -81.61035 2912 ft 210 kts 33°
2026-05-06 03:06 28.42787 -81.59963 3014 ft 205 kts 46°
2026-05-06 03:07 28.43813 -81.58759 2813 ft 218 kts 48°
2026-05-06 03:07 28.44854 -81.57498 2560 ft 217 kts 49°
2026-05-06 03:07 28.45770 -81.56157 2309 ft 214 kts 58°
2026-05-06 03:07 28.46426 -81.54650 2037 ft 212 kts 67°
2026-05-06 03:08 28.46974 -81.53198 2005 ft 188 kts 68°
2026-05-06 03:08 28.47467 -81.51900 1983 ft 169 kts 68°
2026-05-06 03:08 28.47923 -81.50699 1997 ft 167 kts 69°
2026-05-06 03:08 28.48385 -81.49475 2001 ft 169 kts 68°
2026-05-06 03:09 28.48849 -81.48249 1992 ft 173 kts 68°
2026-05-06 03:09 28.49322 -81.47002 2014 ft 167 kts 68°
2026-05-06 03:09 28.49773 -81.45820 1998 ft 159 kts 68°
2026-05-06 03:09 28.50201 -81.44693 2000 ft 153 kts 69°
2026-05-06 03:10 28.50622 -81.43582 1898 ft 152 kts 68°
2026-05-06 03:10 28.51012 -81.42559 1695 ft 129 kts 69°
2026-05-06 03:10 28.51348 -81.41682 1536 ft 116 kts 68°
2026-05-06 03:10 28.51663 -81.40848 1383 ft 118 kts 69°
2026-05-06 03:11 28.51988 -81.39988 1254 ft 120 kts 69°
2026-05-06 03:11 28.52324 -81.39118 1101 ft 120 kts 66°
2026-05-06 03:11 28.52657 -81.38255 919 ft 119 kts 68°
2026-05-06 03:11 28.52976 -81.37400 794 ft 117 kts 68°
2026-05-06 03:12 28.53300 -81.36543 664 ft 118 kts 69°
2026-05-06 03:12 28.53621 -81.35673 518 ft 119 kts 70°
2026-05-06 03:12 28.53944 -81.34810 336 ft 118 kts 66°
2026-05-06 03:12 28.54273 -81.33958 152 ft 118 kts 66°
2026-05-06 03:13 28.54568 -81.33185 116 ft 79 kts 66°
2026-05-06 03:13 28.54700 -81.32837 115 ft 21 kts 66°
2026-05-06 03:13 28.54764 -81.32775 116 ft 11 kts 30°
2026-05-06 03:13 28.54829 -81.32724 115 ft 10 kts 36°
2026-05-06 03:14 28.54877 -81.32712 113 ft 5 kts 344°
2026-05-06 03:14 28.54884 -81.32744 115 ft 7 kts 251°
2026-05-06 03:14 28.54863 -81.32799 116 ft 7 kts 246°
2026-05-06 03:14 28.54844 -81.32848 116 ft 8 kts 246°
2026-05-06 03:15 28.54819 -81.32915 116 ft 11 kts 247°
2026-05-06 03:15 28.54784 -81.33005 115 ft 14 kts 246°
2026-05-06 03:15 28.54756 -81.33078 116 ft 16 kts 246°
2026-05-06 03:15 28.54719 -81.33232 116 ft 16 kts 265°
2026-05-06 03:16 28.54706 -81.33373 114 ft 20 kts 264°
2026-05-06 03:16 28.54692 -81.33512 114 ft 12 kts 264°
2026-05-06 03:16 28.54688 -81.33579 115 ft 12 kts 265°
2026-05-06 03:16 28.54655 -81.33647 115 ft 8 kts 219°
2026-05-06 03:17 28.54646 -81.33680 115 ft 5 kts 307°
2026-05-06 03:17 28.54676 -81.33718 115 ft 8 kts 311°
2026-05-06 03:17 28.54718 -81.33774 114 ft 11 kts 308°
2026-05-06 03:17 28.54762 -81.33839 116 ft 7 kts 309°
2026-05-06 03:18 28.54792 -81.33842 117 ft 4 kts 26°
2026-05-06 03:18 28.54804 -81.33833 118 ft 0 kts 34°